PVSAT (52894 NORAD) Tracking and Keplerian Element Data

This shows tracking and keplerian element data for the satellite.

Feedback or suggestion? Click here.




ElementValue
Catalog52894
NamePVSAT
Epoch Orbit1418
Epoch Day269.68632851
Epoch Year2022
RAAN57.5129
Inclination98.0347
Eccentricity0.0008513
Argument of Perigee298.8938
Mean Anonmoly61.1407
Mean Motion14.5747946
Decay Rate1.95E-06
L11 52894U 22065A 22269.68632851 .00000195 00000+0 52553-4 0 9991
L22 52894 98.0347 57.5129 0008513 298.8938 61.1407 14.57479460 14184

Live tracking and technical data element details for PVSAT (NORAD 52894). PVSAT can be tracked NOW for your location showing map with azimuth and elevation plus other details from your city location.

Track the satellite on the map from your city or location and see movement details for azimuth, elevation, latitude, longitude, range, height, and movement on the map or in text.







IsCatalogInMostPopularTable: catalog: 52894, numindb: 6
Update: records affected: 1



GetName: 52894 PVSAT

Hit Count: updated at: Thu, 06 Oct 2022 04:29:00 GMT